TimeMST,TemperatureF,Dew PointF,Humidity,Sea Level PressureIn,VisibilityMPH,Wind Direction,Wind SpeedMPH,Gust SpeedMPH,PrecipitationIn,Events,Conditions,WindDirDegrees,DateUTC
12:53 AM,44.1,32.0,63,29.67,10.0,SW,11.5,-,N/A,,Clear,220,2012-12-01 07:53:00
1:53 AM,43.0,32.0,65,29.67,10.0,SSW,12.7,-,N/A,,Clear,200,2012-12-01 08:53:00
2:53 AM,39.9,30.9,70,29.68,10.0,SSW,13.8,-,N/A,,Clear,210,2012-12-01 09:53:00
3:53 AM,37.9,30.0,73,29.70,10.0,SSW,12.7,-,N/A,,Clear,210,2012-12-01 10:53:00
4:53 AM,39.2,30.2,70,29.65,10.0,SSW,9.2,-,N/A,,Clear,200,2012-12-01 11:53:00
5:53 AM,42.1,32.0,67,29.67,10.0,SSW,16.1,-,N/A,,Clear,200,2012-12-01 12:53:00
6:53 AM,42.1,30.9,65,29.69,10.0,SSW,13.8,-,N/A,,Clear,200,2012-12-01 13:53:00
7:53 AM,42.1,30.9,65,29.70,10.0,SSW,11.5,-,N/A,,Mostly Cloudy,200,2012-12-01 14:53:00
8:53 AM,48.0,32.0,54,29.67,10.0,SW,23.0,32.2,N/A,,Clear,220,2012-12-01 15:53:00
9:53 AM,50.0,32.0,50,29.66,10.0,SW,23.0,28.8,N/A,,Clear,220,2012-12-01 16:53:00
10:53 AM,53.6,30.2,41,29.65,10.0,SW,16.1,-,N/A,,Clear,220,2012-12-01 17:53:00
11:53 AM,53.1,28.0,38,29.65,10.0,SW,18.4,29.9,N/A,,Clear,220,2012-12-01 18:53:00
12:53 PM,54.0,28.0,37,29.62,10.0,SSW,21.9,38.0,N/A,,Clear,210,2012-12-01 19:53:00
1:53 PM,51.8,30.2,44,29.61,10.0,SW,24.2,35.7,N/A,,Partly Cloudy,220,2012-12-01 20:53:00
2:53 PM,53.1,30.9,43,29.65,10.0,SW,13.8,-,N/A,,Mostly Cloudy,230,2012-12-01 21:53:00
3:53 PM,48.0,33.1,56,29.68,10.0,SW,27.6,35.7,N/A,,Scattered Clouds,230,2012-12-01 22:53:00
4:53 PM,46.0,30.0,54,29.69,10.0,SSW,19.6,26.5,N/A,,Mostly Cloudy,200,2012-12-01 23:53:00
5:53 PM,42.1,28.9,60,29.71,10.0,SSW,11.5,-,N/A,,Clear,210,2012-12-02 00:53:00
6:53 PM,43.0,25.0,49,29.71,10.0,SSW,9.2,-,N/A,,Clear,210,2012-12-02 01:53:00
7:53 PM,39.9,26.1,58,29.74,10.0,SE,11.5,-,N/A,,Clear,130,2012-12-02 02:53:00
8:53 PM,44.1,27.0,51,29.68,10.0,SSW,15.0,-,N/A,,Clear,200,2012-12-02 03:53:00
9:53 PM,44.1,26.1,49,29.65,10.0,SW,16.1,-,N/A,,Clear,220,2012-12-02 04:53:00
10:53 PM,43.0,28.0,56,29.67,10.0,SW,12.7,-,N/A,,Clear,220,2012-12-02 05:53:00
11:53 PM,41.0,28.0,60,29.67,10.0,SSW,10.4,-,N/A,,Clear,210,2012-12-02 06:53:00